Regional Weather Roundup
Issued by NWS

Home | Current Version | Previous Version | Text Only | Print | Product List | Glossary On
Versions: 1 2 3 4 5 6 7 8 9 10 11 12 13 14 15 16 17 18 19 20 21 22 23 24 25 26 27 28 29 30 31 32 33 34 35 36 37 38 39 40 41 42 43 44 45 46 47 48 49 50
000
ASUS44 KLIX 222011
RWRLA
LOUISIANA WEATHER ROUNDUP
NATIONAL WEATHER SERVICE NEW ORLEANS LA
300 PM CDT FRI MAY 22 2015

NOTE: "FAIR" INDICATES FEW OR NO CLOUDS BELOW 12,000 FEET WITH NO
      SIGNIFICANT WEATHER AND/OR OBSTRUCTIONS TO VISIBILITY.
      SKY/WX - SKY CONDITION AND SIGNIFICANT WEATHER.
      TMP - AIR TEMPERATURE.    DP   - DEWPOINT TEMPERATURE.
      RH  - RELATIVE HUMIDITY.  PRES - PRESSURE.
      HX  - HEAT INDEX.         WCI  - WIND CHILL INDEX.

*  THESE STATIONS ARE NOT NWS OR FAA STATIONS AND ARE NOT UNDER
   NWS QUALITY CONTROL.

LAZ040-048-061>063-065-066-069-222100-
SOUTHEAST LOUISIANA

CITY           SKY/WX    TMP DP  RH WIND       PRES   REMARKS
N.O. AUDUBON     N/A     82  67  61 MISG        N/A
N.O. INTL ARPT MOSUNNY   80  65  59 N7        30.15F
N.O. LAKEFRONT SUNNY     82  65  56 N9        30.16F
SLIDELL        CLOUDY    83  68  60 CALM      30.14F
BATON ROUGE    PTSUNNY   81  68  64 E5        30.15F
BOOTHVILLE     CLOUDY    77  70  79 E13       30.15F
BELLE CHASSE   MOSUNNY   79  65  62 VRB5      30.15S
BOGALUSA*        N/A     80  62  53 CALM      30.17F
GALLIANO*      CLOUDY    81  70  68 MISG      30.15S
NEW ROADS*     CLOUDY    77  65  67 CALM      30.16S
GONZALES*      MOCLDY    80  68  65 CALM      30.14S
HAMMOND*       MOSUNNY   84  63  48 CALM      30.16F
HOUMA*         MOSUNNY   81  72  74 NE8       30.15S
PORT FOURCHON* CLOUDY    79  72  78 E12G18    30.15R

$$

LAZ041-044-053-054-222100-
SOUTHWEST LOUISIANA

CITY           SKY/WX    TMP DP  RH WIND       PRES   REMARKS
LAKE CHARLES   PTSUNNY   78  68  71 E5        30.14F
LAFAYETTE      CLOUDY    77  67  71 CALM      30.15F
PATTERSON      NOT AVBL
SALT POINT       N/A     79  70  74 SE5       30.13S
NEW IBERIA     CLOUDY    79  69  71 VRB5      30.16S
CHENAULT AIRPK NOT AVBL

$$

LAZ027-028-222100-
CENTRAL LOUISIANA

CITY           SKY/WX    TMP DP  RH WIND       PRES   REMARKS
FORT POLK      SUNNY     75  64  69 VRB5      30.15F
ALEXANDRIA INT CLOUDY    73  62  68 CALM      30.16F
ALEXANDRIA     MOSUNNY   79  63  57 VRB6      30.17S

$$

LAZ001-002-222100-
NORTHWEST LOUISIANA

CITY           SKY/WX    TMP DP  RH WIND       PRES   REMARKS
SHREVEPORT     MOSUNNY   74  60  61 VRB7      30.16F
BARKSDALE AFB  SUNNY     74  59  59 SE8       30.16F
DTN SHREVEPORT SUNNY     73  59  61 SE7       30.17F

$$

LAZ014-016-222100-
NORTHEAST LOUISIANA

CITY           SKY/WX    TMP DP  RH WIND       PRES   REMARKS
MONROE         SUNNY     73  56  54 VRB7      30.20F
TALLULAH       SUNNY     75  54  47 VRB6      30.19F

$$




USA.gov is the U.S. government's official web portal to all federal, state and local government web resources and services.